COSMOS 2160

Satellite information

Favourite Embed

Satellite Type and Status

PAYLOADIN ORBIT

Key statistics

Satellite COSMOS 2160 at a glance.

Uptime

12496

Days in orbit

Revolutions

≈ 12.6

Per day

Orbit

LEO

Low Earth Orbit

Inclination

82.6

Latest

Satellite identification and parameters

Extended collection of information and parameters for COSMOS 2160.

Object identification

Identified? True

Debris? False

Object name: COSMOS 2160

International designator: 1991-068D

Object number (NORAD): 21731

Object ID (CCSDS): 21731

Country: COMMONWEALTH OF INDEPENDENT STATES (CIS)

Current information (Y/N): Y

RCS size: MEDIUM

Orbital parameters

Period: 113.861 minutes

Inclination: 82.5877 deg

SMA: 7781.736 km

Apoapsis: 1411.146 km

Periapsis: 1396.056 km

RAAN: 64.0162 deg

Eccentricy: 0.00096961

Argument of periapsis: 80.0338 deg

Mean anomaly: 335.1372 deg

Mean motion: 12.64701478 rev/day

Mean motion (dot): 0.00000025 rev/day2

B* drag term: 0.00007829724 1/REarth

Two-line elements (TLE)

Creation date: Dec. 12, 2025, 10:14 a.m.

Reference frame: TEME

Reference center: EARTH

Epoch: Dec. 12, 2025, 6:16 a.m. UTC

TLE line 0: 0 COSMOS 2160

TLE line 1: 1 21731U 91068D 25346.26161694 .00000025 00000-0 78297-4 0 9997

TLE line 2: 2 21731 82.5877 64.0162 0009696 80.0338 335.1372 12.64701478578907

Live tracking on map

Real-time ground track for satellite COSMOS 2160.

In-orbit conjunctions

There are no conjunctions computed for COSMOS 2160, at the moment. Check back to stay up to date, as we update our databases every day.

Go to all conjunctions

Associated space launch

Second generation store-dump military communications satellite

COSMOS 2160 was lifted into orbit during the mission ‘Tsiklon-3 | Strela-3 67 to 72’, on board a Tsiklon-3 space rocket.

The launch took place on Sept. 28, 1991, 7:05 a.m. from 32/2.

For more information about the launch, click the button.

Launch to space Tsiklon-3 | Strela-3 67 to 72
Tsiklon-3 | Strela-3 67 to 72

Agency: N/A

Status: Launch Successful

Launch date: Sept. 28, 1991, 7:05 a.m. UTC

Rocket: Tsiklon-3

Launch pad: 32/2

Location: Plesetsk Cosmodrome, Russian Federation

...

Latest news about this satellite

There are no fresh news available about this satellite. Check back as we update our databases every day.


Newsletter sign-up

Weekly statistics, charts and insights to help you stay on top of the space industry.